• Join FlightAware (Why Join?)
  • Login
  • US Flag GB Flag 
14:41 EDT


 

Airport Tracker/Info


-or-


 

Live Flight TrackerFlight Track Log ✈ EJA922 ✈ 01-Jul-2013 ✈ KSMO - KSFO

Flight Track Log - Related Links

Times and Time Zones

All times are in EDT time to prevent confusion due to time zone crossing. See the EJA922 flight status page for this flight to view local times or setup timezone preferences in your user account.

Time Position Orientation Groundspeed Altitude Reporting Facility
EDT Latitude Longitude Course Direction KTS MPH feet Rate Location/Type
13:53 34.0000 -118.5167 252° West 210 242 3,200  Level Southern California TRACON
13:54 33.9814 -118.5869 252° West 233 268 5,800 1,860 Climbing Los Angeles Center
13:55 33.9483 -118.6767 246° West 276 318 7,300 1,620 Climbing Los Angeles Center
13:57 34.0771 -118.7990 294° West  Level Estimated
13:57 33.9264 -118.9167 294° West 347 399 11,200  Level Los Angeles Center
13:58 33.9358 -119.0403 275° West 379 436 13,300 1,920 Climbing Los Angeles Center
13:59 34.0075 -119.1361 312° West 385 443 15,200 1,680 Climbing Los Angeles Center
14:01 34.1116 -119.2245 305° West  Level Estimated
14:01 34.1611 -119.3294 305° West 403 464 18,700  Level Los Angeles Center
14:02 34.2564 -119.4519 313° West 415 478 20,400 1,440 Climbing Los Angeles Center
14:03 34.3397 -119.5575 314° West 428 493 21,700 1,140 Climbing Los Angeles Center
14:04 34.4244 -119.6658 313° West 440 506 22,800 1,080 Climbing Los Angeles Center
14:05 34.5131 -119.7775 314° West 455 524 24,000 960 Climbing Los Angeles Center
14:07 34.5892 -119.8628 317° Northwest 460 529 24,900 1,080 Climbing Los Angeles Center
14:08 34.7300 -120.0119 319° Northwest 485 558 26,300 1,200 Climbing Los Angeles Center
14:09 34.8275 -120.1172 318° Northwest 491 565 27,400 960 Climbing Los Angeles Center
14:10 34.9306 -120.2294 318° Northwest 500 575 28,300 960 Climbing Los Angeles Center
14:11 35.0336 -120.3442 318° Northwest 506 582 29,400 780 Climbing Los Angeles Center
14:12 35.1592 -120.4836 318° Northwest 516 594 30,000 240 Climbing Los Angeles Center
14:13 35.2686 -120.6072 317° Northwest 541 623 29,900 -60 Descending Los Angeles Center
14:14 35.3792 -120.7317 317° Northwest 543 625 29,900  Level Los Angeles Center
14:15 35.4897 -120.8550 318° Northwest 539 620 30,000  Climbing Los Angeles Center
14:16 35.6553 -121.0036 324° Northwest 541 623 30,000  Level Oakland Center
14:17 35.7783 -121.1106 325° Northwest 540 621 30,000 -60 Level Oakland Center
14:18 35.9014 -121.2181 325° Northwest 540 621 29,900  Descending Oakland Center
14:19 36.0492 -121.3469 325° Northwest 540 621 30,000  Climbing Oakland Center
14:20 36.1722 -121.4561 324° Northwest 542 624 30,000 -60 Level Oakland Center
14:21 36.2953 -121.5642 325° Northwest 542 624 29,900 -600 Descending Oakland Center
14:22 36.4186 -121.6717 325° Northwest 541 623 28,800 -1,560 Descending Oakland Center
14:23 36.5408 -121.7811 324° Northwest 540 621 26,800 -2,040 Descending Oakland Center
14:24 36.6597 -121.8897 324° Northwest 531 611 24,700 -2,520 Descending Oakland Center
14:26 36.8500 -122.0000 335° Northwest 500 575 20,800 -2,640 Descending Northern Cal TRACON
14:26 36.9178 -122.0108 353° North 492 566 19,300 -3,000 Descending Oakland Center
14:27 37.0675 -122.0478 349° North 448 516 15,700 -2,880 Descending Oakland Center
14:28 37.1539 -122.0781 344° North 364 419 13,400 -2,040 Descending Oakland Center
14:30 37.1992 -122.1725 301° West 323 372 11,600 -1,560 Descending Oakland Center
14:31 37.2392 -122.2669 298° West 309 356 10,300 -1,260 Descending Oakland Center
14:33 37.3406 -122.3683 322° Northwest 267 307 7,800 -1,200 Descending Oakland Center
14:34 37.3833 -122.2667 62° Northeast 255 293 6,500 -900 Descending Northern Cal TRACON
14:35 37.4167 -122.2000 58° Northeast 236 272 5,900 -1,140 Descending Northern Cal TRACON
14:36 37.4667 -122.1833 15° North 238 274 4,300 -1,080 Descending Northern Cal TRACON
14:38 37.5667 -122.2367 337° Northwest 229 264 2,900 -1,020 Descending Oakland Center
14:40 37.6000 -122.3500 290° West 134 154 300 -1,260 Descending Northern Cal TRACON
14:42 37.6167 -122.3667 322° Northwest  Level FlightAware Approximate
14:49 37.6191 -122.3752 322° Northwest  Level Estimated